Location: Mahannah Oil Field
(37.4664°N, 96.6003°W)
Time: 16:26:03
(UTC+00:00)

Vanguard 2 Rocket - Pass Details

Date: 21 June 2021
Orbit: 554 x 3325 km, 32.9° (Epoch: 24 July)

Event Time Altitude Azimuth Distance (km) Brightness Sun altitude
Rises 05:34:48 0° 278° (W) 7,008 11.7 -27.8°
Reaches altitude 10° 05:40:02 10° 275° (W) 5,704 11.1 -28.0°
Maximum altitude 05:55:33 58° 203° (SSW) 2,229 8.4 -28.6°
Enters shadow 05:58:03 49° 161° (SSE) 2,202 8.3 -28.7°
